Temperature
24 24 23 23 24 26 28 28 29 29 30 30 30 30 30 27 26 23 22 22 21 21 21 21 20 20 20 20 20 20 20 19 19 19 19 19 19 19 19 19 19 19 19 19 19 19 19 19 19
25 24 24 25 25 27 27 29 29 30 30 30 30 30 29 27 25 23 22 22 21 21 21 21 20 20 20 20 20 19 19 19 19 19 19 19 19 19 19 19 19 19 19 19 19 19 19 19 19
25 25 26 25 27 27 28 29 30 30 30 30 30 29 27 27 25 23 22 22 21 20 20 21 21 20 20 20 20 19 19 19 19 19 19 19 19 19 19 19 19 19 19 18 18 18 18 18 18
25 26 28 27 28 29 29 30 30 30 30 30 30 28 26 26 25 23 22 22 21 20 20 21 21 20 20 20 20 19 19 19 19 19 19 19 19 19 19 19 19 19 18 18 18 18 18 18 18
27 28 27 27 29 30 31 31 31 30 30 30 29 28 26 25 24 23 22 22 21 20 20 21 21 20 20 20 19 19 19 19 19 19 19 19 19 19 19 19 19 19 19 18 18 18 18 18 18
28 29 26 26 29 30 31 31 31 31 31 30 29 28 26 25 24 23 23 22 21 20 20 21 20 20 20 20 19 19 19 19 19 19 19 19 19 19 19 19 19 19 19 18 18 18 18 18 18
27 27 27 28 29 30 31 31 31 31 30 30 30 28 26 25 24 23 23 23 22 21 20 20 20 20 20 20 19 19 19 19 19 19 19 19 19 19 19 19 19 19 19 19 18 18 18 18 18
27 28 28 28 28 29 31 31 31 31 30 30 30 29 27 25 24 23 23 23 22 21 20 20 20 20 20 20 19 19 19 19 19 19 19 19 19 19 19 19 19 19 19 19 19 18 18 18 18
27 28 26 27 28 29 31 31 31 30 30 30 29 28 27 25 24 24 23 23 23 22 21 20 19 19 19 19 19 19 19 19 19 19 19 19 19 18 18 18 19 19 19 19 19 18 18 18 18
29 27 26 28 29 29 30 30 30 30 30 29 28 27 26 25 25 24 24 24 23 23 22 21 20 19 19 19 19 19 19 19 19 19 19 19 18 18 17 18 18 19 19 19 19 19 19 18 18
30 28 28 29 29 30 30 30 30 30 28 29 28 27 26 26 25 25 24 24 24 23 23 22 21 20 19 19 19 19 18 19 18 18 18 18 18 18 18 18 18 19 19 18 18 19 19 18 18
29 29 29 29 29 29 30 30 29 29 28 29 29 28 27 27 26 26 25 25 24 24 23 22 21 21 20 19 19 19 19 19 18 18 18 18 18 18 18 18 18 18 18 18 18 18 19 19 19
29 29 29 29 29 29 29 29 29 28 28 29 29 28 28 27 27 26 26 26 25 24 23 23 22 21 21 20 19 19 19 19 19 19 18 18 18 18 19 18 18 18 18 18 18 18 19 19 19
29 29 29 29 29 29 29 29 29 28 28 28 28 28 28 27 27 26 26 26 26 25 24 23 23 22 21 21 20 19 19 19 19 19 19 19 19 19 19 19 19 18 18 18 18 19 19 19 19
29 28 29 29 29 29 29 28 27 26 27 27 28 27 27 27 26 26 26 26 25 25 24 24 23 22 22 21 20 20 20 19 19 19 19 19 19 19 19 19 19 19 19 19 19 19 19 19 18
29 28 28 29 29 29 28 26 25 25 26 26 26 26 26 26 26 25 25 25 25 25 24 24 23 23 22 22 21 21 20 20 20 19 19 20 20 19 19 19 19 19 19 19 19 19 19 19 18
28 27 27 27 27 27 27 25 25 25 26 26 26 26 25 25 25 24 24 24 24 24 24 24 23 23 22 22 21 21 20 20 20 19 19 20 20 20 19 19 19 19 19 19 18 18 18 18 18
26 26 26 26 26 26 25 24 25 25 25 25 25 25 25 25 24 23 23 23 23 23 23 24 23 23 22 22 21 21 20 20 20 19 19 19 20 19 19 19 19 19 18 18 18 18 18 18 18
26 26 26 26 27 26 26 25 25 25 25 25 25 25 24 23 23 22 22 22 22 22 23 23 23 23 22 22 21 21 20 20 19 19 19 19 19 19 19 19 18 18 18 18 18 18 18 18 18
26 26 26 26 26 26 25 25 25 25 24 24 23 23 23 22 22 21 20 20 20 21 21 22 22 22 22 21 21 20 20 20 19 19 19 19 19 18 18 18 18 18 18 18 18 17 17 17 17
25 24 24 24 24 25 25 24 25 24 23 22 22 22 21 21 20 19 19 19 19 19 20 20 21 22 22 21 21 20 20 19 19 19 18 18 18 18 18 18 18 18 17 17 17 17 17 17 17
23 24 23 23 23 23 24 22 23 21 20 19 19 19 19 19 19 18 18 17 17 17 18 19 20 21 21 21 21 20 20 19 19 19 18 18 18 18 18 17 17 17 17 17 17 17 17 17 17
23 24 23 23 22 22 23 23 21 19 17 17 17 17 18 18 18 17 17 17 16 16 17 18 19 20 21 21 20 20 19 19 19 18 18 18 17 17 17 17 17 17 17 17 16 17 16 16 17
23 23 23 23 23 21 22 22 18 16 15 16 16 16 16 16 16 16 16 16 16 16 16 17 17 18 19 19 19 19 19 18 18 17 17 17 17 17 17 17 17 16 16 16 16 16 16 16 16
22 21 20 21 21 20 20 19 14 15 15 15 15 15 15 15 15 15 15 15 15 15 15 16 16 16 17 18 18 18 17 17 17 16 16 16 16 16 16 16 16 16 16 16 16 16 16 16 16
20 20 18 18 18 19 19 16 13 14 14 14 14 14 14 14 14 13 13 14 14 14 14 15 15 15 16 16 16 16 16 16 16 15 15 15 15 15 15 15 16 16 16 16 16 16 16 16 16
19 19 19 18 18 18 17 14 14 14 13 13 13 13 13 12 12 12 13 13 13 14 14 14 14 14 15 15 15 15 15 15 15 14 14 14 14 15 15 15 15 15 16 15 16 16 16 15 15
19 19 18 17 16 16 15 13 11 12 12 12 13 12 11 11 11 12 12 12 13 13 13 13 14 14 14 14 14 14 14 14 14 14 14 14 14 14 15 15 15 15 15 16 16 15 15 15 15
17 17 17 17 16 15 13 12 11 11 11 11 12 11 11 11 11 11 12 12 12 13 13 13 13 14 14 14 14 14 14 14 14 14 14 14 15 15 15 15 15 16 16 16 16 15 15 15 15
17 17 16 15 14 14 13 11 12 11 11 11 11 11 11 11 11 11 11 12 12 12 13 13 13 13 13 14 14 14 14 14 14 14 14 15 15 15 15 15 16 16 16 16 16 16 15 15 15
Wind_Speed
14 11 8 3 3 1 11 8 8 8 10 10 9 8 11 15 9 7 7 12 19 18 18 17 16 15 14 13 12 11 11 11 11 12 11 11 11 11 10 10 10 10 10 10 10 9 9 8 8
12 6 4 3 2 7 9 8 10 11 9 7 8 12 14 14 13 10 9 14 19 18 17 16 16 15 14 12 11 11 11 11 11 11 11 11 11 10 10 10 10 10 10 9 9 9 9 8 8
12 9 4 3 3 8 8 7 9 9 8 8 7 14 11 7 11 10 11 17 18 17 16 18 16 15 13 12 11 11 11 11 11 11 11 11 11 10 10 10 10 10 10 10 9 9 9 8 7
8 5 4 1 7 8 7 7 7 6 6 9 9 11 11 9 8 13 14 16 17 16 17 18 15 14 13 12 11 11 11 11 11 11 10 10 10 10 10 10 10 11 11 10 10 9 8 7 6
6 4 2 2 7 8 7 8 6 6 8 9 13 15 12 13 15 16 13 16 16 16 17 17 15 14 13 12 11 11 11 11 11 11 10 10 10 10 10 10 10 10 10 10 9 8 8 7 6
4 3 1 2 6 6 6 6 6 7 7 9 11 14 10 11 14 13 13 14 16 16 16 16 15 13 12 12 11 11 11 11 11 11 10 9 10 10 10 10 10 10 9 8 7 6 6 6 6
5 5 1 3 5 4 6 6 7 7 10 9 8 13 11 13 11 11 12 12 15 16 16 15 14 13 12 11 11 11 11 11 11 11 10 9 9 9 10 10 10 9 8 6 5 4 4 4 5
4 5 3 2 5 4 5 4 5 7 8 7 9 10 10 13 12 11 10 10 13 15 16 15 15 15 13 12 12 11 11 11 11 11 10 10 9 9 10 10 9 8 7 5 4 3 2 3 4
4 4 5 4 4 4 4 3 4 2 5 6 11 13 15 15 14 11 9 8 10 12 13 14 14 13 14 14 14 13 11 11 11 10 10 10 11 11 11 11 11 8 6 5 4 4 4 5 6
4 3 4 4 5 4 4 4 3 1 5 6 9 12 14 12 12 11 10 10 11 12 13 13 13 12 12 11 14 12 12 12 11 12 12 12 12 10 11 15 12 9 7 6 6 7 7 8 9
4 3 1 3 6 4 3 3 4 4 5 4 5 10 12 12 11 11 11 11 11 11 11 12 12 12 10 7 10 8 9 11 12 12 13 12 9 9 12 10 9 9 9 9 8 9 10 12 10
5 4 4 4 4 4 5 3 3 4 4 3 2 6 10 11 11 10 11 10 11 11 11 11 12 12 11 9 7 6 6 6 7 10 13 10 4 4 8 8 11 10 10 8 9 8 11 10 9
7 4 3 4 4 6 6 5 3 2 4 4 3 1 5 8 8 8 9 10 11 10 11 11 12 12 12 9 7 8 6 7 9 10 13 11 4 4 3 4 7 8 9 5 4 5 3 1 2
5 6 7 7 7 7 6 7 4 2 3 3 3 2 2 2 3 5 4 6 8 11 11 11 10 10 11 10 8 7 6 7 8 9 11 13 8 3 4 4 3 3 6 8 6 3 3 1 2
7 9 11 11 10 6 4 4 3 5 3 4 5 6 6 3 1 1 1 2 3 7 10 11 11 10 11 11 11 7 6 8 5 7 11 12 11 7 4 4 5 4 5 7 4 2 3 2 3
11 11 11 8 6 3 5 3 5 5 4 5 6 7 7 6 5 7 7 5 2 2 5 9 11 10 10 9 9 7 6 6 5 7 7 8 11 9 5 3 4 4 5 2 2 1 1 2 2
7 6 7 3 3 3 5 0 3 2 1 3 4 5 5 5 7 9 9 8 7 4 3 6 9 9 9 9 7 6 6 6 5 6 6 5 7 8 6 4 2 3 2 1 3 2 1 1 2
10 10 8 4 0 3 5 2 3 3 2 2 3 3 4 7 8 9 9 8 8 7 5 4 7 9 8 8 7 6 5 6 5 4 5 5 3 6 6 4 2 1 2 1 0 1 1 1 1
12 13 14 9 3 5 7 5 3 3 3 2 3 5 7 9 10 10 11 10 9 8 7 6 5 8 7 6 7 7 6 5 5 5 5 5 3 5 5 4 3 2 2 1 1 1 1 0 1
12 13 13 10 8 8 9 9 3 3 3 5 7 9 10 11 11 11 12 13 14 12 10 9 6 7 9 7 8 7 7 5 5 5 5 6 4 4 5 5 3 3 2 1 2 1 0 1 1
13 12 12 13 13 13 14 13 7 4 6 8 8 9 11 11 12 13 12 12 13 13 14 12 10 7 7 9 7 7 6 5 5 5 4 4 4 4 4 3 3 3 3 3 4 4 4 3 3
12 13 14 15 14 11 12 10 2 6 11 14 15 14 13 13 12 11 12 12 13 13 14 14 13 11 5 7 10 10 8 7 6 6 4 4 3 3 3 3 2 3 3 4 6 6 5 5 5
13 16 17 18 16 16 13 11 2 10 13 14 15 16 15 14 13 13 12 11 12 13 12 12 13 11 8 2 7 9 7 6 5 6 7 5 4 3 3 3 1 2 3 4 6 5 6 6 6
14 17 18 15 11 12 9 9 5 10 13 15 16 16 16 16 15 14 13 12 11 11 11 11 11 11 10 8 3 6 8 9 8 7 7 5 4 2 2 2 2 2 3 4 5 6 6 6 6
16 14 7 6 3 3 7 5 8 13 16 16 17 17 17 17 16 14 14 13 11 11 11 10 10 10 10 9 7 5 6 7 7 6 6 6 4 2 1 1 2 3 3 3 3 4 5 5 6
13 12 8 6 7 8 6 6 7 16 17 17 17 17 18 17 16 14 13 12 11 10 10 9 9 9 9 9 8 8 8 6 5 5 5 5 3 2 2 1 3 3 3 3 3 2 3 4 4
10 10 9 7 9 6 3 5 7 18 19 20 20 20 19 18 16 15 13 12 11 10 10 9 9 9 8 9 8 8 8 7 6 5 5 3 2 2 1 2 3 3 3 3 2 3 3 2 1
10 10 6 6 6 5 4 6 10 19 20 20 20 19 18 17 16 14 12 12 11 10 10 10 9 9 8 7 7 7 6 6 5 4 3 3 2 0 1 3 4 5 5 5 3 1 1 1 1
12 11 8 4 4 4 4 4 8 13 15 17 17 17 16 16 14 13 12 11 11 11 11 11 10 9 8 7 7 7 6 5 4 3 2 1 1 3 4 5 6 6 7 6 5 3 3 2 2
11 11 8 5 5 5 3 3 7 9 11 12 14 14 15 15 14 13 12 12 12 12 11 11 11 9 8 7 7 6 5 4 3 2 2 3 4 5 6 6 5 3 3 2 4 4 3 3 3
Wind_Direction
279 245 226 249 265 90 68 67 69 51 51 47 34 35 56 58 53 85 145 147 124 124 131 139 140 139 136 133 130 125 121 118 115 111 107 103 100 97 96 94 93 94 93 93 93 91 91 93 101
285 257 237 247 284 78 74 66 68 57 43 33 39 37 53 64 81 107 147 124 125 127 138 140 143 143 142 140 137 133 129 124 119 115 112 108 104 100 97 95 94 95 96 95 94 94 92 93 98
267 263 252 241 70 78 86 82 79 68 46 33 53 64 49 53 94 123 129 129 129 131 136 134 146 146 146 146 145 142 137 131 126 122 118 113 110 105 100 98 96 95 96 96 94 94 93 93 97
272 260 245 350 76 78 90 97 83 78 65 48 57 70 65 55 88 120 135 139 129 130 128 138 147 149 152 153 152 149 144 140 135 129 124 120 117 113 108 102 97 92 90 92 94 94 92 91 97
250 258 321 52 80 77 75 82 81 77 65 58 71 80 78 78 98 121 146 136 133 132 131 143 149 152 156 158 157 155 151 148 143 137 132 129 125 122 118 112 106 99 94 92 92 92 91 94 105
281 276 35 67 82 78 83 85 76 66 60 61 82 90 94 108 115 135 145 142 142 137 137 143 151 156 160 162 163 162 159 156 152 147 143 139 134 131 127 122 116 110 104 100 95 93 94 99 113
312 301 217 137 92 75 59 46 63 68 58 44 63 98 111 114 124 140 146 153 142 140 139 146 156 161 165 168 169 169 167 164 160 157 152 148 143 141 138 134 129 124 120 116 110 105 105 110 122
310 298 316 67 99 82 58 51 53 54 71 50 47 87 115 126 142 145 151 152 143 147 148 157 163 166 170 172 176 176 174 171 168 164 160 157 156 156 154 151 141 139 138 138 139 142 148 153 158
273 285 347 16 65 63 37 35 60 22 81 75 72 80 108 129 141 145 150 157 160 159 156 161 165 168 171 172 172 175 178 177 173 172 172 172 181 178 176 160 148 154 157 164 176 191 203 203 203
248 313 19 347 41 45 14 6 6 38 69 77 89 101 119 141 147 155 165 175 171 166 165 164 166 166 169 173 159 177 180 177 188 184 181 199 208 185 163 145 155 164 175 188 206 218 226 224 213
278 315 42 333 36 3 344 350 343 8 48 42 108 132 146 156 160 167 178 182 174 175 169 165 168 167 165 155 158 176 175 174 196 191 188 207 210 155 139 155 160 178 191 204 208 221 229 220 212
292 319 326 352 34 317 307 323 337 18 45 355 38 144 158 172 176 179 184 179 170 174 173 170 168 169 169 165 165 166 173 177 189 191 197 201 205 188 167 169 173 184 199 207 197 217 221 217 189
279 283 280 284 277 275 290 294 289 7 360 330 338 153 166 176 182 186 186 173 170 167 172 181 174 175 175 167 162 177 177 178 191 190 199 196 184 202 169 178 167 184 181 175 243 243 184 125 68
306 309 289 273 267 265 269 275 272 33 351 331 329 323 112 131 176 182 193 185 175 167 178 179 181 178 171 165 175 184 175 175 189 182 200 194 183 188 156 188 145 199 172 172 219 227 125 131 87
279 270 263 250 245 249 272 281 9 37 16 11 4 25 34 41 333 187 174 202 179 178 180 175 179 183 179 176 182 180 171 175 180 179 205 193 176 183 160 194 156 198 192 186 218 196 133 142 124
254 255 261 256 225 218 243 228 73 24 28 30 15 21 19 2 353 29 27 3 344 212 193 177 181 187 185 175 175 173 175 171 170 174 210 204 174 180 162 174 153 183 181 183 124 24 118 172 169
273 286 306 344 24 317 280 56 124 104 46 39 20 11 7 359 8 18 14 353 338 316 240 192 183 186 184 173 172 173 173 165 164 171 185 214 180 170 144 143 143 173 140 150 162 188 198 207 171
329 324 310 315 22 293 298 272 175 137 97 60 22 358 21 14 16 12 6 348 328 311 286 244 191 185 186 167 175 171 172 165 160 158 163 190 162 146 128 124 135 106 118 121 303 164 116 25 50
312 304 300 303 313 304 290 267 185 133 113 66 22 18 26 19 11 19 5 351 333 318 305 281 220 187 187 174 177 172 171 165 160 157 154 159 150 117 115 129 135 99 106 154 251 270 165 211 330
313 305 303 314 340 325 299 286 228 152 101 53 28 17 22 14 3 12 6 358 350 343 331 306 280 213 196 190 186 176 166 163 156 147 140 144 152 138 131 134 136 138 144 204 257 281 156 209 222
325 332 336 325 319 299 285 271 234 139 73 56 31 24 23 16 6 0 0 357 350 346 342 331 315 283 217 190 183 168 151 154 157 151 144 141 141 133 128 136 147 174 182 207 227 229 215 221 243
319 337 323 305 296 287 283 282 297 84 53 33 16 12 15 12 4 1 3 358 351 347 344 339 333 320 292 197 181 174 170 173 171 158 142 132 125 125 134 134 178 208 208 215 222 224 213 212 228
319 316 299 285 277 275 276 272 12 39 31 19 10 3 4 4 1 1 2 359 354 353 350 345 345 343 344 334 178 175 168 165 144 132 127 125 113 108 124 137 162 234 235 229 230 232 216 205 215
328 316 296 272 255 257 275 276 55 27 13 4 4 358 358 358 360 1 0 360 0 0 359 359 3 7 7 14 78 146 149 142 136 136 135 125 113 96 97 143 165 229 242 244 243 233 226 213 217
345 340 330 327 290 299 354 34 52 16 10 6 360 356 357 358 360 1 2 357 360 4 4 9 14 17 20 32 50 86 116 128 135 136 133 126 119 118 134 179 211 224 230 242 247 242 234 221 220
346 356 351 325 323 327 12 64 48 12 3 4 2 358 358 359 0 4 5 1 1 6 8 18 26 28 31 45 58 71 83 85 90 98 110 111 114 130 154 203 239 235 229 242 230 245 254 240 229
356 357 333 312 306 309 40 50 13 2 360 2 1 0 1 359 0 3 4 6 8 11 14 22 32 38 42 54 65 71 79 84 84 85 90 100 118 136 161 224 229 227 212 225 228 213 248 241 247
13 355 348 349 341 340 39 41 354 349 352 352 357 0 358 357 0 3 6 10 16 20 21 27 37 43 49 56 64 74 77 85 88 86 87 82 74 27 264 268 245 216 199 205 204 228 249 265 220
16 12 1 347 1 356 3 34 352 340 343 347 356 359 359 358 4 9 14 18 22 25 26 27 30 36 38 45 56 60 63 64 69 65 62 67 249 247 247 252 252 219 197 193 169 201 189 239 247
35 16 10 17 20 14 33 23 342 336 337 350 359 2 3 5 10 17 21 24 27 26 25 26 25 32 32 36 45 51 50 44 28 353 313 283 273 267 263 252 246 199 153 164 156 181 182 222 248
Height
1487 1487 1488 1490 1491 1491 1494 1489 1483 1483 1482 1483 1482 1482 1484 1490 1498 1509 1509 1510 1511 1512 1514 1517 1519 1522 1525 1527 1529 1531 1533 1534 1536 1537 1538 1539 1540 1541 1542 1543 1544 1545 1546 1547 1548 1549 1550 1551 1552
1487 1490 1492 1491 1494 1501 1500 1488 1487 1486 1486 1485 1485 1485 1487 1493 1499 1505 1508 1511 1512 1513 1516 1518 1520 1523 1525 1528 1530 1532 1534 1535 1536 1538 1539 1540 1541 1542 1543 1544 1545 1546 1547 1548 1549 1549 1550 1551 1552
1489 1491 1491 1490 1492 1498 1498 1488 1486 1487 1487 1486 1486 1489 1494 1498 1501 1505 1509 1511 1513 1514 1517 1519 1521 1524 1526 1528 1531 1532 1534 1536 1537 1539 1540 1541 1542 1543 1544 1545 1546 1547 1548 1549 1549 1550 1551 1552 1553
1492 1491 1489 1490 1494 1488 1487 1486 1485 1487 1487 1487 1488 1492 1498 1501 1503 1506 1509 1512 1514 1516 1518 1520 1522 1525 1527 1529 1531 1533 1535 1536 1538 1539 1540 1542 1543 1544 1545 1546 1547 1548 1549 1549 1550 1551 1552 1552 1553
1492 1490 1492 1496 1491 1485 1483 1485 1486 1487 1488 1489 1490 1495 1501 1504 1505 1507 1510 1514 1516 1518 1518 1521 1523 1525 1527 1529 1531 1533 1535 1536 1538 1539 1541 1542 1543 1544 1545 1546 1547 1548 1549 1550 1551 1552 1552 1553 1554
1493 1488 1501 1505 1493 1486 1484 1485 1487 1488 1488 1489 1491 1496 1503 1506 1507 1510 1512 1515 1517 1518 1519 1522 1524 1526 1528 1530 1532 1533 1535 1537 1538 1540 1541 1542 1543 1544 1545 1546 1547 1548 1549 1551 1551 1552 1553 1554 1555
1494 1491 1497 1496 1494 1490 1487 1486 1487 1489 1490 1492 1492 1496 1503 1506 1509 1511 1514 1516 1518 1519 1520 1522 1525 1526 1528 1530 1532 1533 1535 1537 1538 1540 1541 1542 1543 1544 1545 1546 1547 1548 1550 1551 1552 1553 1554 1554 1555
1495 1492 1492 1492 1495 1494 1488 1488 1489 1490 1492 1494 1494 1497 1502 1507 1509 1512 1514 1517 1519 1520 1521 1523 1525 1527 1528 1530 1532 1533 1535 1537 1539 1540 1541 1542 1544 1545 1545 1546 1547 1548 1549 1551 1552 1553 1554 1555 1556
1495 1496 1502 1497 1494 1493 1489 1490 1491 1492 1493 1495 1496 1499 1503 1507 1510 1512 1515 1517 1519 1521 1522 1524 1525 1527 1529 1530 1532 1534 1535 1537 1538 1540 1541 1543 1544 1545 1545 1546 1547 1548 1550 1551 1552 1553 1554 1555 1557
1494 1500 1502 1493 1490 1492 1491 1492 1492 1492 1494 1496 1498 1502 1504 1507 1510 1512 1514 1516 1518 1520 1522 1524 1525 1527 1529 1531 1532 1533 1535 1536 1538 1540 1541 1543 1544 1546 1546 1546 1548 1548 1550 1551 1552 1553 1554 1556 1557
1492 1494 1494 1492 1491 1493 1493 1493 1494 1494 1497 1497 1499 1501 1504 1506 1509 1511 1513 1514 1516 1519 1521 1523 1525 1527 1529 1530 1531 1533 1534 1536 1538 1539 1541 1543 1545 1546 1547 1548 1548 1548 1549 1551 1552 1553 1555 1555 1557
1493 1492 1492 1492 1494 1495 1494 1494 1495 1496 1499 1499 1499 1500 1502 1505 1507 1509 1511 1512 1515 1517 1519 1522 1523 1525 1527 1529 1531 1532 1533 1535 1536 1538 1541 1543 1545 1547 1547 1547 1547 1548 1549 1551 1552 1554 1555 1557 1559
1493 1493 1493 1494 1495 1495 1495 1494 1495 1497 1498 1499 1499 1500 1500 1502 1505 1507 1509 1511 1513 1515 1518 1520 1522 1524 1526 1528 1529 1531 1532 1534 1536 1537 1540 1542 1544 1546 1547 1548 1549 1549 1550 1552 1553 1554 1557 1558 1559
1494 1493 1493 1493 1493 1493 1494 1494 1495 1497 1498 1499 1499 1499 1500 1501 1504 1506 1507 1509 1511 1512 1515 1518 1520 1522 1524 1525 1527 1529 1531 1533 1535 1536 1538 1541 1543 1544 1546 1548 1549 1550 1552 1552 1553 1555 1556 1557 1558
1493 1494 1492 1490 1490 1490 1493 1496 1497 1498 1499 1499 1500 1500 1500 1502 1503 1505 1506 1508 1509 1511 1513 1515 1517 1520 1522 1523 1525 1527 1529 1531 1533 1535 1537 1539 1541 1543 1545 1547 1547 1549 1551 1552 1553 1555 1556 1557 1558
1490 1492 1495 1487 1486 1489 1496 1503 1500 1499 1500 1501 1502 1502 1502 1503 1504 1504 1505 1507 1508 1510 1511 1512 1514 1516 1519 1521 1523 1525 1527 1529 1531 1533 1535 1538 1539 1541 1543 1545 1546 1548 1550 1551 1552 1554 1555 1557 1557
1492 1499 1499 1494 1490 1492 1495 1502 1500 1501 1501 1502 1503 1504 1504 1504 1504 1504 1505 1505 1506 1507 1508 1509 1510 1513 1515 1518 1520 1522 1524 1526 1529 1531 1533 1535 1538 1539 1541 1542 1545 1546 1548 1550 1551 1553 1554 1556 1557
1506 1502 1500 1499 1495 1496 1498 1502 1499 1500 1501 1502 1503 1504 1505 1505 1505 1505 1505 1505 1505 1505 1506 1507 1507 1509 1511 1513 1516 1519 1521 1523 1525 1528 1530 1533 1535 1536 1538 1540 1542 1544 1546 1548 1549 1551 1553 1554 1555
1502 1502 1502 1497 1493 1496 1498 1499 1498 1500 1501 1503 1504 1505 1505 1506 1507 1506 1505 1505 1505 1504 1504 1504 1504 1504 1507 1508 1510 1513 1516 1519 1521 1524 1526 1529 1531 1533 1535 1537 1539 1541 1543 1545 1547 1549 1550 1551 1553
1502 1504 1502 1497 1494 1497 1499 1498 1497 1499 1502 1504 1506 1507 1507 1508 1508 1507 1506 1504 1503 1501 1501 1501 1502 1501 1501 1503 1504 1506 1510 1514 1516 1519 1522 1525 1527 1530 1532 1534 1536 1538 1540 1542 1544 1546 1547 1549 1551
1509 1509 1509 1508 1502 1499 1501 1502 1498 1499 1504 1508 1510 1510 1510 1510 1509 1508 1506 1504 1502 1500 1498 1497 1497 1497 1497 1497 1498 1500 1504 1508 1511 1513 1516 1520 1523 1525 1527 1530 1533 1535 1537 1539 1541 1542 1544 1545 1547
1517 1509 1510 1509 1511 1510 1504 1513 1503 1504 1509 1513 1515 1514 1513 1512 1511 1509 1506 1504 1501 1499 1496 1494 1492 1492 1493 1493 1493 1495 1497 1501 1504 1508 1511 1515 1519 1521 1523 1526 1529 1532 1534 1535 1537 1538 1540 1542 1543
1515 1510 1508 1506 1508 1510 1505 1510 1515 1514 1521 1522 1521 1519 1516 1514 1511 1509 1506 1504 1501 1498 1495 1492 1489 1488 1488 1489 1489 1491 1493 1496 1499 1503 1506 1509 1514 1517 1519 1522 1525 1528 1530 1531 1533 1535 1536 1537 1539
1513 1509 1502 1497 1502 1515 1510 1511 1530 1533 1534 1529 1525 1523 1520 1516 1511 1508 1506 1503 1500 1497 1494 1491 1488 1486 1485 1486 1487 1488 1490 1493 1495 1498 1501 1505 1509 1513 1516 1518 1521 1524 1526 1528 1530 1531 1533 1534 1535
1518 1520 1521 1517 1516 1520 1513 1522 1547 1541 1537 1534 1530 1526 1521 1517 1512 1508 1505 1502 1500 1497 1494 1491 1488 1486 1485 1485 1486 1487 1489 1491 1494 1496 1499 1502 1505 1509 1513 1516 1518 1521 1523 1525 1527 1528 1530 1530 1531
1526 1526 1538 1542 1534 1526 1522 1538 1549 1545 1541 1537 1533 1529 1523 1518 1514 1509 1505 1503 1500 1497 1494 1492 1489 1487 1486 1486 1487 1488 1489 1491 1493 1496 1497 1499 1503 1507 1510 1513 1516 1518 1521 1523 1525 1526 1527 1528 1528
1533 1533 1530 1533 1530 1533 1537 1546 1546 1546 1543 1538 1534 1529 1524 1520 1515 1510 1506 1504 1501 1498 1496 1494 1491 1490 1489 1488 1489 1489 1491 1492 1493 1495 1496 1499 1502 1506 1509 1511 1514 1517 1519 1521 1523 1524 1525 1525 1526
1537 1536 1535 1540 1545 1546 1547 1558 1564 1553 1548 1543 1537 1533 1527 1522 1516 1511 1508 1505 1503 1500 1498 1496 1495 1493 1492 1492 1491 1492 1493 1494 1496 1497 1499 1501 1503 1506 1508 1510 1513 1515 1517 1519 1521 1522 1523 1524 1524
1545 1543 1542 1542 1544 1555 1562 1571 1566 1561 1554 1548 1542 1537 1531 1525 1519 1514 1510 1507 1505 1503 1501 1499 1498 1497 1497 1496 1496 1496 1497 1498 1499 1500 1502 1503 1505 1507 1509 1510 1512 1515 1517 1518 1519 1521 1521 1522 1522
1548 1548 1547 1553 1558 1557 1566 1576 1565 1561 1556 1550 1545 1539 1534 1528 1522 1517 1514 1510 1507 1506 1504 1503 1502 1501 1500 1500 1500 1500 1501 1502 1502 1503 1504 1506 1507 1508 1509 1510 1512 1514 1516 1517 1518 1519 1520 1520 1521